Location: Cold Norton
(51.6667°N, 0.6667°E)
Time: 17:47:23
(UTC+00:00)

IRAS Rocket - Pass Details

Date: 18 November 2025
Orbit: 845 x 876 km, 100.1° (Epoch: 10 December)

Event Time Altitude Azimuth Distance (km) Brightness Sun altitude
Rises 17:36:22 0° 145° (SE) 3,436 7.2 -14.2°
Reaches altitude 10° 17:38:47 10° 141° (SE) 2,499 6.4 -14.5°
Maximum altitude 17:44:10 56° 65° (ENE) 1,020 4.3 -15.3°
Drops below altitude 10° 17:49:34 10° 349° (N) 2,495 6.7 -16.2°
Sets 17:51:58 0° 345° (NNW) 3,431 7.4 -16.5°
